Change the Weather History Date:

Tuesday, December 4, 2012

  Actual Average Record
Temperature  
Mean Temperature 14 °F -  
Max Temperature 17 °F 22 °F 42 °F (2004)
Min Temperature 10 °F 11 °F -5 °F (2005)
Degree Days  
Heating Degree Days 52    
Moisture  
Dew Point 9 °F    
Average Humidity 79    
Maximum Humidity 86    
Minimum Humidity 73    
Precipitation  
Precipitation 0.00 in - - ()
Sea Level Pressure  
Sea Level Pressure 30.11 in    
Wind  
Wind Speed 18 mph (WNW)    
Max Wind Speed 24 mph    
Max Gust Speed 32 mph    
Visibility 8 miles    
Events Snow    
Averages and records for this station are not official NWS values.
T = Trace of Precipitation, MM = Missing Value Source: NWS Daily Summary

Daily Weather History Graph

Daily Weather History Graph

Search for Another Location

Airport or City:

Trip Planner

Search our weather history database for the weather conditions in past years. The results will help you decide how hot, cold, wet, or windy it might be!

Date:

Astronomy

Dec. 04, 2012 Rise Set
Actual Time 7:57 AM CST 4:21 PM CST
Civil Twilight 7:20 AM CST 4:59 PM CST
Nautical Twilight 6:40 AM CST 5:39 PM CST
Astronomical Twilight 6:02 AM CST 6:17 PM CST
Moon 10:31 PM CST 11:33 AM CST
Length of Visible Light 9h 38m
Length of Day
8h 23m
Waning Gibbous, 69% of the Moon is Illuminated
Dec 4
Waning Gibbous
Dec 6
Last Quarter
Dec 13
New
Dec 19
First Quarter
Dec 28
Full

Hourly Weather History & Observations

Time (CST) Temp. Windchill Dew Point Humidity Pressure Visibility Wind Dir Wind Speed Gust Speed Precip Events Conditions
12:14 AM 12.2 °F -6.7 °F 5.0 °F 73% 29.75 in 5.0 mi West 21.9 mph 32.2 mph N/A   Haze
12:34 AM 10.4 °F -9.9 °F 5.0 °F 79% 29.76 in 4.0 mi West 24.2 mph 32.2 mph N/A   Haze
12:53 AM 10.4 °F -8.6 °F 3.2 °F 73% 29.78 in 3.0 mi West 20.7 mph 32.2 mph N/A   Haze
1:14 AM 10.4 °F -9.9 °F 3.2 °F 73% 29.79 in 10.0 mi West 24.2 mph 31.1 mph N/A   Overcast
1:34 AM 10.4 °F -8.2 °F 3.2 °F 73% 29.80 in 7.0 mi WSW 19.6 mph 24.2 mph N/A   Overcast
1:53 AM 10.4 °F -7.2 °F 5.0 °F 79% 29.80 in 7.0 mi West 17.3 mph 25.3 mph N/A   Overcast
2:14 AM 10.4 °F -9.5 °F 5.0 °F 79% 29.81 in 4.0 mi West 23.0 mph 28.8 mph N/A   Haze
2:34 AM 10.4 °F -8.2 °F 5.0 °F 79% 29.83 in 7.0 mi West 19.6 mph 28.8 mph N/A   Overcast
2:53 AM 10.4 °F -6.0 °F 5.0 °F 79% 29.84 in 10.0 mi West 15.0 mph 21.9 mph N/A   Overcast
3:14 AM 10.4 °F -6.6 °F 5.0 °F 79% 29.85 in 10.0 mi West 16.1 mph 25.3 mph N/A   Overcast
3:34 AM 10.4 °F -6.0 °F 5.0 °F 79% 29.86 in 4.0 mi West 15.0 mph - N/A   Haze
3:53 AM 10.4 °F -8.2 °F 5.0 °F 79% 29.86 in 4.0 mi West 19.6 mph 26.5 mph N/A   Haze
4:14 AM 10.4 °F -9.1 °F 5.0 °F 79% 29.87 in 5.0 mi West 21.9 mph 27.6 mph N/A   Haze
4:34 AM 10.4 °F -8.2 °F 5.0 °F 79% 29.88 in 5.0 mi West 19.6 mph 25.3 mph N/A   Haze
4:53 AM 10.4 °F -8.6 °F 3.2 °F 73% 29.89 in 5.0 mi West 20.7 mph 27.6 mph N/A   Haze
5:14 AM 10.4 °F -8.6 °F 3.2 °F 73% 29.90 in 5.0 mi West 20.7 mph 27.6 mph N/A   Haze
5:34 AM 10.4 °F -7.2 °F 5.0 °F 79% 29.92 in 7.0 mi West 17.3 mph 26.5 mph N/A   Overcast
5:53 AM 10.4 °F -7.7 °F 5.0 °F 79% 29.93 in 5.0 mi West 18.4 mph 27.6 mph N/A   Haze
6:14 AM 10.4 °F -6.6 °F 5.0 °F 79% 29.94 in 4.0 mi West 16.1 mph - N/A   Haze
6:34 AM 10.4 °F -6.6 °F 5.0 °F 79% 29.95 in 4.0 mi West 16.1 mph 23.0 mph N/A   Haze
6:53 AM 10.4 °F -7.2 °F 5.0 °F 79% 29.96 in 5.0 mi West 17.3 mph 25.3 mph N/A Snow Light Snow
7:14 AM 10.4 °F -8.2 °F 6.8 °F 85% 29.98 in 7.0 mi West 19.6 mph 25.3 mph N/A   Overcast
7:53 AM 10.4 °F -9.9 °F 6.8 °F 85% 29.99 in 7.0 mi WNW 24.2 mph 27.6 mph N/A   Overcast
8:14 AM 10.4 °F -8.2 °F 6.8 °F 85% 30.00 in 7.0 mi WNW 19.6 mph - N/A   Overcast
8:33 AM 10.4 °F -7.7 °F 6.8 °F 85% 30.02 in 10.0 mi WNW 18.4 mph - N/A   Overcast
8:53 AM 10.4 °F -9.9 °F 6.8 °F 85% 30.02 in 10.0 mi WNW 24.2 mph - N/A   Overcast
9:14 AM 12.2 °F -6.7 °F 8.6 °F 85% 30.03 in 10.0 mi WNW 21.9 mph - N/A   Overcast
9:33 AM 12.2 °F -6.7 °F 8.6 °F 85% 30.05 in 10.0 mi WNW 21.9 mph 27.6 mph N/A   Overcast
9:53 AM 12.2 °F -5.8 °F 8.6 °F 85% 30.07 in 10.0 mi WNW 19.6 mph - N/A Snow Light Snow
10:14 AM 12.2 °F -7.5 °F 8.6 °F 85% 30.09 in 7.0 mi WNW 24.2 mph - N/A Snow Light Snow
10:33 AM 12.2 °F -6.7 °F 8.6 °F 85% 30.10 in 5.0 mi WNW 21.9 mph - N/A Snow Light Snow
10:53 AM 14.0 °F -3.0 °F 8.6 °F 79% 30.11 in 5.0 mi WNW 18.4 mph 23.0 mph N/A Snow Light Snow
11:14 AM 15.8 °F -2.7 °F 8.6 °F 73% 30.12 in 5.0 mi WNW 24.2 mph 27.6 mph N/A Snow Light Snow
11:33 AM 15.8 °F -1.5 °F 10.4 °F 79% 30.13 in 10.0 mi WNW 20.7 mph - N/A Snow Light Snow
11:53 AM 15.8 °F -2.3 °F 10.4 °F 79% 30.14 in 7.0 mi WNW 23.0 mph 27.6 mph N/A Snow Light Snow
12:13 PM 15.8 °F -1.1 °F 10.4 °F 79% 30.15 in 10.0 mi WNW 19.6 mph - N/A Snow Light Snow
12:33 PM 17.6 °F 2.2 °F 10.4 °F 73% 30.15 in 10.0 mi WNW 17.3 mph - N/A Snow Light Snow
12:53 PM 17.6 °F 1.3 °F 10.4 °F 73% 30.17 in 10.0 mi NW 19.6 mph 24.2 mph N/A Snow Light Snow
1:14 PM 17.6 °F 1.7 °F 10.4 °F 73% 30.18 in 10.0 mi NW 18.4 mph 25.3 mph N/A   Clear
1:33 PM 17.6 °F 1.7 °F 10.4 °F 73% 30.18 in 10.0 mi NW 18.4 mph - N/A   Clear
1:53 PM 17.6 °F 2.7 °F 10.4 °F 73% 30.19 in 10.0 mi NW 16.1 mph - N/A Snow Light Snow
2:14 PM 17.6 °F 1.7 °F 10.4 °F 73% 30.20 in 10.0 mi NW 18.4 mph - N/A   Overcast
2:33 PM 17.6 °F 2.7 °F 12.2 °F 79% 30.22 in 10.0 mi NW 16.1 mph - N/A   Overcast
2:53 PM 17.6 °F 3.2 °F 10.4 °F 73% 30.22 in 10.0 mi NW 15.0 mph - N/A Snow Light Snow
3:14 PM 17.6 °F 3.2 °F 10.4 °F 73% 30.23 in 10.0 mi NW 15.0 mph - N/A Snow Light Snow
3:34 PM 17.6 °F 2.7 °F 12.2 °F 79% 30.24 in 10.0 mi NW 16.1 mph - N/A Snow Light Snow
3:53 PM 17.6 °F 3.2 °F 12.2 °F 79% 30.26 in 10.0 mi NW 15.0 mph - N/A   Overcast
4:14 PM 17.6 °F 3.2 °F 10.4 °F 73% 30.26 in 10.0 mi WNW 15.0 mph - N/A Snow Light Snow
4:54 PM 15.8 °F 3.4 °F 10.4 °F 79% 30.28 in 10.0 mi NW 10.4 mph - N/A   Overcast
5:13 PM 15.8 °F 3.4 °F 10.4 °F 79% 30.28 in 10.0 mi NW 10.4 mph - N/A   Overcast
5:33 PM 15.8 °F 4.2 °F 10.4 °F 79% 30.29 in 10.0 mi WNW 9.2 mph - N/A Snow Light Snow
5:53 PM 15.8 °F 3.4 °F 12.2 °F 86% 30.30 in 10.0 mi West 10.4 mph - N/A Snow Light Snow
6:13 PM 15.8 °F 4.2 °F 10.4 °F 79% 30.31 in 10.0 mi WNW 9.2 mph - N/A Snow Light Snow
6:33 PM 15.8 °F 2.7 °F 10.4 °F 79% 30.33 in 10.0 mi WNW 11.5 mph - N/A Snow Light Snow
6:53 PM 15.8 °F 2.7 °F 12.2 °F 86% 30.34 in 10.0 mi West 11.5 mph - N/A Snow Light Snow
7:13 PM 15.8 °F 3.4 °F 12.2 °F 86% 30.34 in 10.0 mi WNW 10.4 mph - N/A Snow Light Snow
7:33 PM 15.8 °F 5.1 °F 12.2 °F 86% 30.34 in 10.0 mi WNW 8.1 mph - N/A Snow Light Snow
7:54 PM 15.8 °F 6.1 °F 12.2 °F 86% 30.32 in 10.0 mi NW 6.9 mph - N/A Snow Light Snow
8:07 PM 15.8 °F 6.1 °F 12.2 °F 86% 30.32 in 10.0 mi WNW 6.9 mph - N/A Snow Light Snow
8:33 PM 15.8 °F 10.2 °F 12.2 °F 86% 30.32 in 10.0 mi WNW 3.5 mph - N/A   Overcast
8:54 PM 17.6 °F 12.3 °F 12.2 °F 79% 30.31 in 10.0 mi NNW 3.5 mph - N/A Snow Light Snow
9:13 PM 17.6 °F - 12.2 °F 79% 30.31 in 10.0 mi Calm Calm - N/A   Overcast
9:33 PM 17.6 °F - 12.2 °F 79% 30.31 in 10.0 mi Calm Calm - N/A Snow Light Snow
9:54 PM 17.6 °F - 12.2 °F 79% 30.31 in 10.0 mi Calm Calm - N/A   Overcast
10:13 PM 17.6 °F - 12.2 °F 79% 30.33 in 10.0 mi Calm Calm - N/A   Overcast
10:34 PM 17.6 °F 10.7 °F 12.2 °F 79% 30.33 in 10.0 mi East 4.6 mph - N/A Snow Light Snow
10:53 PM 17.6 °F - 10.4 °F 73% 30.34 in 10.0 mi Calm Calm - N/A   Overcast
11:13 PM 17.6 °F 10.7 °F 12.2 °F 79% 30.34 in 10.0 mi SE 4.6 mph - N/A   Overcast
11:33 PM 17.6 °F 8.2 °F 12.2 °F 79% 30.35 in 10.0 mi East 6.9 mph - N/A   Overcast
11:53 PM 17.6 °F 8.2 °F 10.4 °F 73% 30.34 in 10.0 mi ESE 6.9 mph - N/A   Overcast